K0OHU-1 Weather Reports


Display with metric or nautical units.
time (UTC)temp
F
wind
direction
speed
MPH
gust
MPH
rain 1hr
in
rain 24hr
in
rain mn
in
humidity
%
barometer
mb
20140723200330 84 314 1.0 5.0 0.00 0.00 0.00 51 1025.8
20140723194834 86 53 0.0 0.0 0.00 0.00 0.00 47 1025.6
20140723193326 86 53 0.0 5.0 0.00 0.00 0.00 48 1025.7
20140723191830 86 360 0.0 2.0 0.00 0.00 0.00 50 1025.7
20140723190323 85 328 0.0 1.0 0.00 0.00 0.00 49 1025.7
20140723184829 83 279 0.0 1.0 0.00 0.00 0.00 53 1026.0
20140723181832 84 52 0.0 1.0 0.00 0.00 0.00 50 1026.9
20140723180334 84 61 0.0 4.0 0.00 0.00 0.00 53 1026.9
20140723174829 84 291 0.0 2.0 0.00 0.00 0.00 53 1026.9
20140723134833 72 230 0.0 0.0 0.00 0.00 0.00 76 1027.0
20140723133342 70 230 0.0 0.0 0.00 0.00 0.00 79 1026.7
20140723131832 68 230 0.0 0.0 0.00 0.00 0.00 81 1026.8
20140723130342 66 230 0.0 0.0 0.00 0.00 0.00 82 1026.3
20140723124837 63 230 0.0 0.0 0.00 0.00 0.00 80 1026.6
20140723123337 61 230 0.0 0.0 0.00 0.00 0.00 83 1027.0
20140723121826 60 230 0.0 0.0 0.00 0.00 0.00 78 1026.3
20140723114826 60 230 0.0 0.0 0.00 0.00 0.00 74 1026.7
20140723113335 60 230 0.0 0.0 0.00 0.00 0.00 72 1026.4
20140723104824 61 230 0.0 0.0 0.00 0.00 0.00 70 1026.0
20140723103333 62 230 0.0 0.0 0.00 0.00 0.00 69 1025.7
20140723101824 62 230 0.0 0.0 0.00 0.00 0.00 68 1025.6
20140723100334 63 230 0.0 0.0 0.00 0.00 0.00 67 1025.5
20140723093331 64 230 0.0 0.0 0.00 0.00 0.00 65 1025.3
20140723091820 64 230 0.0 0.0 0.00 0.00 0.00 62 1025.2
20140723090330 64 230 0.0 0.0 0.00 0.00 0.00 63 1025.3
20140723084830 65 230 0.0 0.0 0.00 0.00 0.00 62 1025.5
20140723081829 65 230 0.0 0.0 0.00 0.00 0.00 60 1025.5
20140723074832 66 230 0.0 0.0 0.00 0.00 0.00 61 1026.0
20140723073321 67 230 0.0 0.0 0.00 0.00 0.00 61 1025.8
20140723071826 68 230 0.0 0.0 0.00 0.00 0.00 60 1026.2
20140723070318 68 230 0.0 0.0 0.00 0.00 0.00 59 1026.2
20140723063317 69 230 0.0 0.0 0.00 0.00 0.00 56 1025.8
20140723060319 71 230 0.0 0.0 0.00 0.00 0.00 53 1025.6
20140723054824 71 230 0.0 0.0 0.00 0.00 0.00 54 1025.7
20140723051825 73 230 0.0 0.0 0.00 0.00 0.00 52 1025.3
20140723050316 73 230 0.0 0.0 0.00 0.00 0.00 48 1025.4
20140723044831 74 230 0.0 0.0 0.00 0.00 0.00 47 1024.7
20140723043314 75 230 0.0 0.0 0.00 0.00 0.00 48 1025.1
20140723041828 76 230 0.0 0.0 0.00 0.00 0.00 46 1024.9
20140723040322 77 230 0.0 0.0 0.00 0.00 0.00 44 1024.7
20140723034827 78 230 0.0 0.0 0.00 0.00 0.00 42 1024.8
20140723033322 79 230 0.0 0.0 0.00 0.00 0.00 39 1024.4
20140723031824 80 230 0.0 0.0 0.00 0.00 0.00 36 1024.4
20140723024824 83 230 0.0 0.0 0.00 0.00 0.00 35 1024.5
20140723023334 84 230 0.0 0.0 0.00 0.00 0.00 32 1024.2
20140723021820 86 167 0.0 0.0 0.00 0.00 0.00 31 1024.4
20140723020333 87 167 0.0 4.0 0.00 0.00 0.00 29 1024.4
20140723014820 89 167 0.0 4.0 0.00 0.00 0.00 28 1024.1
20140723013328 91 246 0.0 1.0 0.00 0.00 0.00 29 1023.5
20140723011837 92 246 0.0 0.0 0.00 0.00 0.00 28 1023.8
20140723010327 94 246 0.0 1.0 0.00 0.00 0.00 26 1023.5
20140723004832 96 246 0.0 2.0 0.00 0.00 0.00 26 1023.9
20140723003323 97 179 0.0 1.0 0.00 0.00 0.00 25 1024.0
20140723001829 97 184 0.0 2.0 0.00 0.00 0.00 24 1023.9
20140723000338 97 189 0.0 2.0 0.00 0.00 0.00 24 1023.7
20140722234828 97 188 0.0 4.0 0.00 0.00 0.00 24 1024.0
20140722233338 97 83 0.0 2.0 0.00 0.00 0.00 26 1023.9
20140722230339 96 105 0.0 2.0 0.00 0.00 0.00 24 1023.7
20140722224835 97 171 0.0 2.0 0.00 0.00 0.00 26 1024.0
20140722223336 97 183 0.0 2.0 0.00 0.00 0.00 26 1023.8
20140722221828 98 288 0.0 5.0 0.00 0.00 0.00 26 1024.0
20140722220338 97 63 0.0 3.0 0.00 0.00 0.00 27 1024.2
20140722214824 96 62 0.0 0.0 0.00 0.00 0.00 26 1024.4
20140722213338 94 62 0.0 1.0 0.00 0.00 0.00 27 1025.1
20140722211844 93 62 0.0 2.0 0.00 0.00 0.00 29 1024.9
20140722210333 95 62 0.0 2.0 0.00 0.00 0.00 29 1024.9
20140722204844 94 62 0.0 1.0 0.00 0.00 0.00 31 1024.8
20140722201841 93 68 0.0 5.0 0.00 0.00 0.00 31 1025.3